Overview Statistics Trail Chart Weather Telemetry Raw packets
 

This is the latest recevied weather packets stored in our database for station/object OH6GKW. If no packets are shown the sender has not sent any weather packets the latest 10 day(s).

<< 28 29 30 31 32 33 34 >>
Time Temp. Humidity Pressure Rain* Wind** Luminosity Snow
1788460718 10.56° C 98% 999.1 hPa 0 mm - 0 W/m² -
1788460413 10.56° C 98% 999.1 hPa 0 mm - 0 W/m² -
1788460123 11.11° C 97% 999 hPa 0 mm - 0 W/m² -
1788459815 11.11° C 96% 999 hPa 0 mm - 0 W/m² -
1788459524 11.11° C 96% 999 hPa 0 mm - 0 W/m² -
1788459215 11.11° C 95% 998.9 hPa 0 mm - 0 W/m² -
1788458924 11.67° C 95% 998.9 hPa 0 mm - 0 W/m² -
1788458631 11.67° C 95% 998.9 hPa 0 mm - 0 W/m² -
1788458318 11.67° C 95% 998.8 hPa 0 mm - 0 W/m² -
1788458011 11.67° C 94% 998.8 hPa 0 mm - 0 W/m² -
1788457723 11.67° C 93% 998.8 hPa 0 mm - 0 W/m² -
1788457415 11.67° C 93% 998.7 hPa 0 mm - 5 W/m² -
1788457111 11.67° C 93% 998.7 hPa 0 mm - 7 W/m² -
1788456826 11.67° C 94% 998.7 hPa 0 mm - 9 W/m² -
1788456517 11.67° C 94% 998.6 hPa 0 mm - 11 W/m² -
1788456209 11.67° C 94% 998.6 hPa 0 mm - 12 W/m² -
1788455928 11.67° C 94% 998.6 hPa 0 mm - 12 W/m² -
1788455620 11.67° C 94% 998.8 hPa 0 mm - 16 W/m² -
1788455316 11.67° C 94% 998.8 hPa 0 mm - 12 W/m² -
1788455016 12.22° C 94% 998.8 hPa 0 mm - 14 W/m² -
1788454722 12.22° C 94% 998.9 hPa 0 mm - 14 W/m² -
1788454414 12.22° C 94% 998.9 hPa 0 mm - 18 W/m² -
1788454127 12.22° C 94% 998.9 hPa 0 mm - 19 W/m² -
1788453820 12.22° C 94% 999.1 hPa 0 mm - 18 W/m² -
1788453512 12.22° C 93% 999.1 hPa 0 mm - 14 W/m² -

* Rain since midnight (hover to see other rain measurements)
** Current wind speed in m/s (hover to see current wind gust speed)